Location: Hawks Ness
(60.2333°N, 1.1667°W)
Time: 05:50:37
(UTC+00:00)

GP-B - Pass Details

Date: 22 October 2019
Orbit: 632 x 635 km, 89.8° (Epoch: 17 November)

Event Time Altitude Azimuth Distance (km) Brightness Sun altitude
Rises 05:05:51 0° 183° (S) 2,927 6.5 -14.9°
Reaches altitude 10° 05:08:04 10° 185° (S) 2,022 5.6 -14.6°
Maximum altitude 05:12:31 75° 271° (W) 666 3.0 -14.0°
Drops below altitude 10° 05:17:00 10° 357° (N) 2,036 5.7 -13.5°
Sets 05:19:14 0° 359° (N) 2,949 6.6 -13.2°
